Regional Weather Roundup
Issued by NWS

Home | Current Version | Previous Version | Graphics & Text | Print | Product List | Glossary Off
Versions: 1 2 3 4 5 6 7 8 9 10 11 12 13 14 15 16 17 18 19 20 21 22 23 24 25 26 27 28 29 30 31 32 33 34 35 36 37 38 39 40 41 42 43 44 45 46 47 48 49 50

523
ASUS43 KFSD 260410
RWRSD

WEATHER ROUNDUP FOR SOUTH DAKOTA
NATIONAL WEATHER SERVICE SIOUX FALLS SD
1100 PM CDT SAT MAR 25 2017

NOTE: "FAIR" INDICATES FEW OR NO CLOUDS BELOW 12,000 FEET WITH NO
SIGNIFICANT WEATHER AND/OR OBSTRUCTIONS TO VISIBILITY.


SDZ001>005-009-010-012>017-260500-
NORTHWEST AND NORTH CENTRAL SOUTH DAKOTA

CITY           SKY/WX    TMP DP  RH WIND       PRES   REMARKS
BUFFALO          N/A     50  32  50 NE13      29.81S
FAITH            N/A     45  33  63 MISG      29.86F
MOBRIDGE       CLOUDY    43  32  65 SE8       29.90S
$$

SDZ012>016-024>037-041>051-057-063-072>074-260500-
SOUTHWEST AND SOUTH CENTRAL SOUTH DAKOTA

CITY           SKY/WX    TMP DP  RH WIND       PRES   REMARKS
RAPID CTY ARPT CLOUDY    50  35  56 NW10      29.80F
PIERRE         CLOUDY    40  34  79 SE14      29.89F
CUSTER         CLOUDY    45  30  55 NW5       29.85F
ELLSWORTH AFB  CLOUDY    53  35  50 N10       29.80F
PHILIP         MOCLDY    46  35  65 E14       29.84S
PINE RIDGE     CLOUDY    55  27  34 S17G23    29.80S
SPEARFISH      FAIR      48  30  49 CALM      29.86F
WINNER         CLOUDY    41  38  89 SE24      29.89F
$$

SDZ004>011-016>023-039-040-260500-
NORTHEAST SOUTH DAKOTA

CITY           SKY/WX    TMP DP  RH WIND       PRES   REMARKS
ABERDEEN       CLOUDY    36  33  89 SE13      30.00S
WATERTOWN      FOG       35  35 100 E7        29.97F VSB 3/4 WCI  29
SISSETON         N/A     36  35  96 S8        30.00F
$$

SDZ017-020-022-023-036>040-048>070-260500-
SOUTHEAST SOUTH DAKOTA

CITY           SKY/WX    TMP DP  RH WIND       PRES   REMARKS
SIOUX FALLS    CLOUDY    40  37  89 E7        29.98F
HURON          CLOUDY    40  38  93 SE8       29.98S
CHAMBERLAIN    CLOUDY    42  40  90 E14       29.94F
MITCHELL       CLOUDY    40  40 100 E7        29.98F FOG
YANKTON        CLOUDY    39  36  87 E8        29.97F
$$

ABBREVIATIONS USED IN REMARKS
   TC - TEMPERATURE IN CELSIUS
  WCI - WIND CHILL INDEX
   HX - HEAT INDEX
  VSB - VISIBILITY





USA.gov is the U.S. government's official web portal to all federal, state and local government web resources and services.